Home > Weather > Charleston > Past weeks

Flag for U.S.A. Weather for the Past 2 Weeks in Charleston, South Carolina, U.S.A.

Now
38 °F

Passing clouds.


Feels Like: 34 °F
Forecast: 30 / 43 °F
Wind: 5 mph from West

Location: Charleston Air Force Base Reporting Station

Current Time: Feb 9, 2016 at 10:06:29 PM

Latest Report: Feb 9, 2016 at 8:56 PM


Visibility: 10 mi

Pressure: 29.93 "Hg

Humidity: 55%

Dew point: 23 °F

Location of CharlestonLocation

Historic Weather in Charleston — Graph

°F

Charleston Temperature Yesterday

Maximum temperature yesterday: 61 °F (at 1:56 PM)
Minimum temperature yesterday: 34 °F (at 4:56 AM)
Average temperature yesterday: 47 °F

High & Low Weather Summary for the Past Weeks

 TemperatureHumidityPressure
High77 °F (Feb 1, 2:56 PM)100% (Jan 26, 9:56 AM)30.39 "Hg (Jan 26, 9:56 AM)
Low32 °F (Feb 6, 4:56 AM)28% (Jan 29, 3:56 PM)29.70 "Hg (Feb 8, 4:56 PM)
Average52 °F73%30.04 "Hg
* Reported Jan 25 7:56 PM — Feb 9 7:56 PM, Charleston, Weather by CustomWeather, © 2016

Note: Actual official high and low records may vary slightly from our data, if they occured in-between our weather recording intervals... More about our weather records

Advertising

Charleston Weather History for the Previous 24 Hours

 ConditionsComfort  
Time TempWeatherWind HumidityBarometerVisibility
7:56 PM
Tue, Feb 9
39 °FPassing clouds.10 mph50%29.91 "Hg10 mi
6:56 PM42 °FPassing clouds.9 mph43%29.90 "Hg10 mi
5:56 PM42 °FPartly sunny.16 mph41%29.87 "Hg10 mi
4:56 PM45 °FPartly sunny.16 mph38%29.83 "Hg10 mi
3:56 PM45 °FPartly sunny.16 mph40%29.79 "Hg10 mi
2:56 PM45 °FMostly cloudy.16 mph48%29.78 "Hg10 mi
1:56 PM45 °FPartly sunny.17 mph45%29.77 "Hg10 mi
12:56 PM46 °FPartly sunny.17 mph42%29.78 "Hg10 mi
11:56 AM46 °FPartly sunny.20 mph42%29.80 "Hg10 mi
10:56 AM47 °FScattered clouds.17 mph41%29.82 "Hg10 mi
9:56 AM45 °FPassing clouds.14 mph45%29.84 "Hg10 mi
8:56 AM41 °FPassing clouds.16 mph58%29.85 "Hg10 mi
7:56 AM37 °FSunny.9 mph70%29.84 "Hg10 mi
6:56 AM36 °FClear.8 mph73%29.81 "Hg10 mi
5:56 AM38 °FClear.9 mph65%29.79 "Hg10 mi
4:56 AM38 °FClear.12 mph70%29.77 "Hg10 mi
3:56 AM39 °FClear.10 mph73%29.76 "Hg10 mi
2:56 AM40 °FClear.10 mph73%29.75 "Hg10 mi
1:56 AM42 °FClear.5 mph73%29.75 "Hg10 mi
11:56 PM
Mon, Feb 8
45 °FPassing clouds.9 mph82%29.72 "Hg10 mi
10:56 PM46 °FOvercast.8 mph86%29.72 "Hg10 mi
Weather by CustomWeather, © 2016

See weather overviewHow to use our weather pages